Powrót do katalogu

ATLAS 5 CENTAUR DEB

LostHEO
NORAD 49367·DEBRIS·🇺🇸 United States

Wystrzelony Oct 17, 2018 z Cape Canaveral Space Force Station

Loading…

Następne Przeloty (najbliższe 24 godziny)

TLE

NieaktualneSource: Space-Track

Epoka: Aug 23, 2023, 07:59 UTC

1 49367U 18079FU  23235.33267667 -.00000033  00000-0  00000+0 0  9995
2 49367  11.0608 149.4284 4659998  77.7879 328.9837  1.63593571 11556

Śledź ATLAS 5 CENTAUR DEB w czasie rzeczywistym z AllMySat

Download on the App Store